GW7108 Weather Reports


time (UTC)temp
C
wind
direction
speed
KPH
gust
KPH
rain 1hr
cm
rain 24hr
cm
rain mn
cm
humidity
%
barometer
mb
20260507105024 18 285 20.9 37.0 0.00 0.00 0.00 40 1025.5
20260507104504 18 279 19.3 35.4 0.00 0.00 0.00 43 1025.8
20260507104003 18 262 17.7 35.4 0.00 0.00 0.00 43 1025.7
20260507103503 18 246 16.1 27.4 0.00 0.00 0.00 45 1025.8
20260507103003 17 256 17.7 27.4 0.00 0.00 0.00 47 1025.8
20260507102503 17 267 16.1 22.5 0.00 0.00 0.00 47 1026.0
20260507102003 17 269 12.9 22.5 0.00 0.00 0.00 48 1026.2
20260507101524 17 269 9.7 19.3 0.00 0.00 0.00 51 1026.3
20260507101003 17 278 6.4 12.9 0.00 0.00 0.00 51 1026.1
20260507100524 18 287 6.4 12.9 0.00 0.00 0.00 50 1026.0
20260507100003 18 283 6.4 12.9 0.00 0.00 0.00 50 1026.0
20260507095524 18 273 8.0 12.9 0.00 0.00 0.00 50 1026.0
20260507095003 18 263 6.4 14.5 0.00 0.00 0.00 49 1026.1
20260507094503 18 278 6.4 14.5 0.00 0.00 0.00 51 1025.7
20260507094003 18 277 6.4 12.9 0.00 0.00 0.00 49 1026.0
20260507093503 17 207 6.4 16.1 0.00 0.00 0.00 52 1026.0
20260507093003 17 176 6.4 16.1 0.00 0.00 0.00 54 1026.1
20260507092503 17 157 4.8 16.1 0.00 0.00 0.00 55 1026.0
20260507092003 16 145 4.8 12.9 0.00 0.00 0.00 58 1026.1
20260507091503 16 154 6.4 12.9 0.00 0.00 0.00 59 1025.7
20260507091003 16 163 8.0 12.9 0.00 0.00 0.00 60 1026.0
20260507090503 16 166 9.7 17.7 0.00 0.00 0.00 61 1026.0
20260507090024 16 163 9.7 17.7 0.00 0.00 0.00 63 1025.8
20260507085503 15 157 9.7 17.7 0.00 0.00 0.00 65 1026.0
20260507085003 15 166 9.7 17.7 0.00 0.00 0.00 66 1025.7
20260507084503 15 179 9.7 20.9 0.00 0.00 0.00 66 1026.1
20260507084003 15 175 11.3 20.9 0.00 0.00 0.00 67 1026.0
20260507083503 15 167 11.3 19.3 0.00 0.00 0.00 68 1025.5
20260507083003 15 158 12.9 20.9 0.00 0.00 0.00 70 1025.6
20260507082503 14 144 9.7 20.9 0.00 0.00 0.00 71 1026.0
20260507082003 13 124 8.0 14.5 0.00 0.00 0.00 74 1025.6
20260507081503 13 144 8.0 14.5 0.00 0.00 0.00 74 1025.6
20260507081003 13 183 8.0 20.9 0.00 0.00 0.00 74 1026.2
20260507080503 13 188 11.3 20.9 0.00 0.00 0.00 72 1026.1
20260507080003 13 184 11.3 20.9 0.00 0.00 0.00 73 1025.8
20260507075503 13 185 12.9 24.1 0.00 0.00 0.00 72 1025.8
20260507075003 13 202 16.1 30.6 0.00 0.00 0.00 73 1025.8
20260507074503 13 200 12.9 30.6 0.00 0.00 0.00 73 1025.7
20260507074024 13 180 9.7 19.3 0.00 0.00 0.00 75 1025.7
20260507073503 13 182 11.3 20.9 0.00 0.00 0.00 74 1025.8
20260507073003 13 172 11.3 22.5 0.00 0.00 0.00 76 1025.7
20260507072503 13 163 11.3 22.5 0.00 0.00 0.00 77 1025.5
20260507072003 13 164 12.9 22.5 0.00 0.00 0.00 78 1025.5
20260507071503 13 164 12.9 22.5 0.00 0.00 0.00 78 1025.5
20260507071003 13 160 11.3 20.9 0.00 0.00 0.00 78 1025.5
20260507070503 12 158 11.3 22.5 0.00 0.00 0.00 79 1025.3
20260507070005 12 162 11.3 22.5 0.00 0.00 0.00 80 1025.4
20260507065504 12 158 11.3 19.3 0.00 0.00 0.00 80 1025.2
20260507065003 12 163 9.7 17.7 0.00 0.00 0.00 80 1025.4
20260507064524 12 157 11.3 29.0 0.00 0.00 0.00 81 1025.5
20260507064004 12 151 12.9 29.0 0.00 0.00 0.00 81 1025.2
20260507063503 12 152 11.3 22.5 0.00 0.00 0.00 81 1025.3
20260507063024 12 150 11.3 19.3 0.00 0.00 0.00 83 1025.2
20260507062503 11 149 9.7 20.9 0.00 0.00 0.00 83 1025.3
20260507062003 11 149 9.7 20.9 0.00 0.00 0.00 84 1025.2
20260507061503 11 148 9.7 19.3 0.00 0.00 0.00 85 1025.3
20260507061003 11 147 9.7 19.3 0.00 0.00 0.00 85 1025.3
20260507060503 11 139 8.0 17.7 0.00 0.00 0.00 85 1025.3
20260507060003 11 134 8.0 17.7 0.00 0.00 0.00 85 1025.0
20260507055503 11 150 8.0 17.7 0.00 0.00 0.00 85 1025.2
20260507055003 11 155 9.7 19.3 0.00 0.00 0.00 86 1024.9
20260507054503 11 151 9.7 19.3 0.00 0.00 0.00 86 1024.9
20260507054024 11 152 8.0 17.7 0.00 0.00 0.00 86 1024.9
20260507053503 11 149 6.4 12.9 0.00 0.00 0.00 87 1024.9
20260507053003 10 127 4.8 9.7 0.00 0.00 0.00 87 1024.9
20260507052503 10 115 4.8 9.7 0.00 0.00 0.00 87 1024.9
20260507052024 10 121 4.8 9.7 0.00 0.00 0.00 86 1024.9
20260507051503 10 107 4.8 9.7 0.00 0.00 0.00 86 1024.8
20260507051003 10 67 4.8 8.0 0.00 0.00 0.00 86 1025.0
20260507050524 10 37 3.2 8.0 0.00 0.00 0.00 86 1024.8
20260507050003 10 19 3.2 9.7 0.00 0.00 0.00 86 1024.9
20260507045503 10 13 4.8 9.7 0.00 0.00 0.00 86 1024.7
20260507045003 10 6 4.8 9.7 0.00 0.00 0.00 85 1024.9
20260507044503 11 356 4.8 9.7 0.00 0.00 0.00 85 1024.8
20260507044003 11 302 3.2 6.4 0.00 0.00 0.00 84 1024.7
20260507043503 11 208 1.6 6.4 0.00 0.00 0.00 85 1024.5
20260507043004 11 292 3.2 8.0 0.00 0.00 0.00 85 1024.5
20260507042503 11 327 3.2 8.0 0.00 0.00 0.00 85 1024.7
20260507042003 11 245 3.2 6.4 0.00 0.00 0.00 84 1024.6
20260507041503 11 231 3.2 8.0 0.00 0.00 0.00 83 1024.7
20260507041003 11 204 4.8 14.5 0.00 0.00 0.00 83 1024.6
20260507040503 11 189 6.4 14.5 0.00 0.00 0.00 82 1024.6
20260507040003 11 183 6.4 11.3 0.00 0.00 0.00 82 1024.7
20260507035503 11 174 4.8 11.3 0.00 0.00 0.00 82 1024.6
20260507035003 11 167 6.4 11.3 0.00 0.00 0.00 81 1024.8
20260507034503 11 162 4.8 11.3 0.00 0.00 0.00 82 1024.9
20260507034003 11 159 4.8 9.7 0.00 0.00 0.00 81 1024.5
20260507033503 11 164 6.4 12.9 0.00 0.00 0.00 82 1024.7
20260507033024 11 162 6.4 16.1 0.00 0.00 0.00 81 1024.8
20260507032504 11 165 8.0 16.1 0.00 0.00 0.00 81 1024.6
20260507032003 11 169 8.0 16.1 0.00 0.00 0.00 81 1024.8
20260507031503 11 171 8.0 14.5 0.00 0.00 0.00 80 1024.7
20260507031003 11 168 6.4 12.9 0.00 0.00 0.00 80 1024.6
20260507030503 11 164 8.0 12.9 0.00 0.00 0.00 80 1024.6
20260507030004 11 175 6.4 12.9 0.00 0.00 0.00 80 1024.6
20260507025504 10 210 4.8 9.7 0.00 0.00 0.00 78 1024.6
20260507025003 10 234 4.8 9.7 0.00 0.00 0.00 74 1024.7
20260507024503 10 263 4.8 9.7 0.00 0.00 0.00 69 1024.8
20260507024003 10 249 4.8 9.7 0.00 0.00 0.00 68 1024.8
20260507023503 10 211 3.2 6.4 0.00 0.00 0.00 70 1024.9
20260507023003 10 197 1.6 3.2 0.00 0.00 0.00 72 1025.0
20260507022503 10 17 1.6 3.2 0.00 0.00 0.00 67 1024.8
20260507022024 10 45 1.6 6.4 0.00 0.00 0.00 65 1024.8
20260507021503 10 124 3.2 6.4 0.00 0.00 0.00 62 1024.9
20260507021003 10 139 4.8 8.0 0.00 0.00 0.00 61 1024.9
20260507020503 10 141 4.8 9.7 0.00 0.00 0.00 60 1024.8
20260507020004 10 142 6.4 9.7 0.00 0.00 0.00 59 1024.9
20260507015503 10 139 4.8 9.7 0.00 0.00 0.00 57 1024.8
20260507015003 11 118 4.8 9.7 0.00 0.00 0.00 56 1024.9
20260507014503 11 96 3.2 8.0 0.00 0.00 0.00 54 1025.1
20260507014003 12 157 3.2 9.7 0.00 0.00 0.00 51 1024.8
20260507013503 12 140 6.4 11.3 0.00 0.00 0.00 50 1024.6
20260507013004 12 96 6.4 11.3 0.00 0.00 0.00 51 1024.9
20260507012524 11 54 4.8 8.0 0.00 0.00 0.00 52 1024.7
20260507012003 12 358 3.2 6.4 0.00 0.00 0.00 52 1024.9
20260507011503 12 237 3.2 6.4 0.00 0.00 0.00 50 1024.8
20260507011003 12 176 3.2 6.4 0.00 0.00 0.00 51 1024.9
20260507010524 11 118 3.2 6.4 0.00 0.00 0.00 53 1025.2
20260507010003 12 154 3.2 4.8 0.00 0.00 0.00 52 1025.1
20260507005503 12 158 4.8 6.4 0.00 0.00 0.00 51 1025.0
20260507005003 12 144 3.2 6.4 0.00 0.00 0.00 52 1025.0
20260507004503 12 163 3.2 6.4 0.00 0.00 0.00 50 1025.2
20260507004003 12 198 1.6 6.4 0.00 0.00 0.00 49 1025.1
20260507003504 12 210 1.6 4.8 0.00 0.00 0.00 49 1025.2
20260507003025 12 227 1.6 4.8 0.00 0.00 0.00 49 1025.2
20260507002524 12 235 1.6 6.4 0.00 0.00 0.00 50 1025.2
20260507002003 12 215 1.6 6.4 0.00 0.00 0.00 50 1025.5
20260507001503 12 227 1.6 6.4 0.00 0.00 0.00 51 1025.3
20260507001003 12 227 1.6 6.4 0.00 0.00 0.00 51 1025.5
20260507000524 12 233 1.6 6.4 0.00 0.00 0.00 52 1025.4
20260507000003 12 250 3.2 4.8 0.00 0.00 0.00 52 1025.4
20260506235503 12 249 3.2 4.8 0.00 0.00 0.00 52 1025.4
20260506235003 12 235 3.2 6.4 0.00 0.00 0.00 52 1025.0
20260506234503 12 228 3.2 8.0 0.00 0.00 0.00 51 1025.4
20260506234003 12 240 3.2 8.0 0.00 0.00 0.00 51 1025.3
20260506233503 12 250 3.2 6.4 0.00 0.00 0.00 50 1025.7
20260506233003 13 237 3.2 6.4 0.00 0.00 0.00 49 1025.6
20260506232524 13 237 1.6 6.4 0.00 0.00 0.00 48 1025.6
20260506232003 13 19 1.6 4.8 0.00 0.00 0.00 48 1025.6
20260506231503 13 57 1.6 3.2 0.00 0.00 0.00 47 1025.4
20260506231003 13 139 1.6 3.2 0.00 0.00 0.00 46 1025.4
20260506230503 13 165 0.0 3.2 0.00 0.00 0.00 45 1025.6
20260506230024 13 194 1.6 4.8 0.00 0.00 0.00 45 1025.5
20260506225524 14 194 1.6 4.8 0.00 0.00 0.00 44 1025.5
20260506225003 13 196 1.6 4.8 0.00 0.00 0.00 44 1025.4
20260506224503 13 210 1.6 4.8 0.00 0.00 0.00 45 1025.4
20260506224003 13 215 1.6 3.2 0.00 0.00 0.00 45 1025.4
20260506223503 13 204 0.0 3.2 0.00 0.00 0.00 46 1025.4
20260506223003 13 337 0.0 4.8 0.00 0.00 0.00 46 1025.3
20260506222503 13 335 1.6 4.8 0.00 0.00 0.00 46 1025.2
20260506222003 13 342 1.6 4.8 0.00 0.00 0.00 46 1025.4
20260506221524 14 357 0.0 3.2 0.00 0.00 0.00 45 1025.4
20260506221003 14 138 0.0 3.2 0.00 0.00 0.00 43 1025.6
20260506220503 15 171 0.0 3.2 0.00 0.00 0.00 42 1025.2
20260506220004 15 218 1.6 3.2 0.00 0.00 0.00 42 1025.3
20260506215524 15 220 1.6 3.2 0.00 0.00 0.00 41 1025.5
20260506215003 15 182 0.0 3.2 0.00 0.00 0.00 40 1025.4
20260506214503 15 185 0.0 3.2 0.00 0.00 0.00 39 1025.5
20260506214003 16 178 0.0 3.2 0.00 0.00 0.00 39 1025.5
20260506213524 16 134 0.0 3.2 0.00 0.00 0.00 38 1025.4
20260506213003 16 89 0.0 1.6 0.00 0.00 0.00 38 1025.3
20260506212524 16 119 1.6 6.4 0.00 0.00 0.00 38 1025.4
20260506212003 16 127 3.2 8.0 0.00 0.00 0.00 38 1025.5
20260506211503 16 125 6.4 8.0 0.00 0.00 0.00 38 1025.5
20260506211003 16 124 6.4 9.7 0.00 0.00 0.00 37 1025.5
20260506210524 16 119 6.4 9.7 0.00 0.00 0.00 37 1025.4
20260506210004 16 118 4.8 8.0 0.00 0.00 0.00 37 1025.4
20260506205503 16 109 6.4 9.7 0.00 0.00 0.00 38 1025.4
20260506205003 16 104 8.0 11.3 0.00 0.00 0.00 37 1025.3
20260506204503 16 105 6.4 11.3 0.00 0.00 0.00 37 1025.3
20260506204003 16 107 4.8 9.7 0.00 0.00 0.00 37 1025.4
20260506203503 16 105 4.8 9.7 0.00 0.00 0.00 37 1025.2
20260506203003 16 105 6.4 9.7 0.00 0.00 0.00 37 1025.4
20260506202524 16 107 4.8 8.0 0.00 0.00 0.00 37 1025.4
20260506202003 16 107 4.8 8.0 0.00 0.00 0.00 37 1025.3
20260506201503 16 108 4.8 8.0 0.00 0.00 0.00 37 1025.3
20260506201003 16 105 3.2 6.4 0.00 0.00 0.00 37 1025.1
20260506200504 16 102 3.2 6.4 0.00 0.00 0.00 37 1025.1
20260506200004 16 105 3.2 6.4 0.00 0.00 0.00 37 1025.0
20260506195503 16 106 3.2 6.4 0.00 0.00 0.00 37 1025.1
20260506195003 16 109 3.2 6.4 0.00 0.00 0.00 37 1025.1
20260506194503 17 107 3.2 6.4 0.00 0.00 0.00 37 1025.0
20260506194003 17 103 4.8 9.7 0.00 0.00 0.00 37 1025.0
20260506193503 17 107 4.8 9.7 0.00 0.00 0.00 37 1024.9
20260506193003 17 117 4.8 8.0 0.00 0.00 0.00 36 1025.0
20260506192503 17 117 4.8 8.0 0.00 0.00 0.00 36 1025.0
20260506192003 17 109 4.8 9.7 0.00 0.00 0.00 36 1025.0
20260506191503 17 105 6.4 9.7 0.00 0.00 0.00 36 1025.0
20260506191003 17 108 6.4 9.7 0.00 0.00 0.00 35 1024.7
20260506190503 17 113 4.8 8.0 0.00 0.00 0.00 36 1025.1
20260506190003 18 119 4.8 8.0 0.00 0.00 0.00 35 1024.8
20260506185503 18 128 6.4 8.0 0.00 0.00 0.00 35 1024.8
20260506185003 18 129 6.4 9.7 0.00 0.00 0.00 34 1024.7
20260506184524 18 125 6.4 9.7 0.00 0.00 0.00 34 1024.8
20260506184003 18 125 6.4 9.7 0.00 0.00 0.00 34 1024.7
20260506183503 18 129 8.0 12.9 0.00 0.00 0.00 33 1025.0
20260506183005 18 132 8.0 14.5 0.00 0.00 0.00 33 1024.8
20260506182503 18 131 9.7 14.5 0.00 0.00 0.00 33 1024.6
20260506182024 18 128 9.7 16.1 0.00 0.00 0.00 33 1024.7
20260506181524 18 130 9.7 16.1 0.00 0.00 0.00 33 1024.8
20260506181003 18 130 8.0 12.9 0.00 0.00 0.00 33 1024.8
20260506180503 18 132 9.7 14.5 0.00 0.00 0.00 33 1025.0
20260506180004 18 136 9.7 14.5 0.00 0.00 0.00 33 1024.8
20260506175503 18 136 9.7 16.1 0.00 0.00 0.00 33 1024.9
20260506175024 19 134 9.7 16.1 0.00 0.00 0.00 33 1025.0
20260506174503 18 131 8.0 14.5 0.00 0.00 0.00 33 1024.8
20260506174003 18 124 6.4 9.7 0.00 0.00 0.00 33 1024.8
20260506173503 18 126 6.4 12.9 0.00 0.00 0.00 33 1025.0
20260506173024 18 137 8.0 14.5 0.00 0.00 0.00 33 1024.9
20260506172503 18 136 9.7 16.1 0.00 0.00 0.00 33 1025.1
20260506172024 18 132 9.7 16.1 0.00 0.00 0.00 32 1024.9
20260506171504 18 138 9.7 16.1 0.00 0.00 0.00 33 1025.0
20260506171003 18 138 9.7 17.7 0.00 0.00 0.00 33 1025.1
20260506170504 19 143 9.7 17.7 0.00 0.00 0.00 33 1025.1
20260506170003 19 147 9.7 20.9 0.00 0.00 0.00 33 1025.1
20260506165503 19 153 11.3 20.9 0.00 0.00 0.00 32 1025.1
20260506165003 19 152 9.7 19.3 0.00 0.00 0.00 33 1025.2
20260506164503 19 129 8.0 19.3 0.00 0.00 0.00 32 1025.1
20260506164003 19 147 6.4 14.5 0.00 0.00 0.00 32 1024.8
20260506163503 19 156 6.4 11.3 0.00 0.00 0.00 32 1025.0
20260506163003 20 143 6.4 11.3 0.00 0.00 0.00 32 1024.9
20260506162503 20 126 4.8 11.3 0.00 0.00 0.00 30 1025.0
20260506162004 20 121 6.4 14.5 0.00 0.00 0.00 30 1025.3
20260506161524 20 129 6.4 14.5 0.00 0.00 0.00 30 1025.1
20260506161003 19 126 4.8 11.3 0.00 0.00 0.00 31 1025.3
20260506160504 19 77 6.4 16.1 0.00 0.00 0.00 32 1024.9
20260506160003 19 66 6.4 16.1 0.00 0.00 0.00 32 1025.1
20260506155503 19 63 4.8 9.7 0.00 0.00 0.00 33 1025.1
20260506155003 19 169 4.8 8.0 0.00 0.00 0.00 33 1025.3
20260506154503 19 185 6.4 11.3 0.00 0.00 0.00 32 1025.4
20260506154003 19 194 6.4 11.3 0.00 0.00 0.00 33 1025.3
20260506153503 19 36 6.4 20.9 0.00 0.00 0.00 33 1025.2
20260506153003 19 50 6.4 20.9 0.00 0.00 0.00 32 1025.3
20260506152503 20 118 4.8 12.9 0.00 0.00 0.00 32 1025.6
20260506152003 19 165 4.8 14.5 0.00 0.00 0.00 32 1025.4
20260506151503 19 138 3.2 14.5 0.00 0.00 0.00 32 1025.7
20260506151003 20 30 4.8 14.5 0.00 0.00 0.00 32 1025.8
20260506150503 20 31 8.0 19.3 0.00 0.00 0.00 32 1025.6
20260506150003 20 44 8.0 20.9 0.00 0.00 0.00 31 1025.8
20260506145503 20 51 8.0 20.9 0.00 0.00 0.00 31 1026.0
20260506145003 20 52 8.0 19.3 0.00 0.00 0.00 32 1026.0
20260506144503 20 75 8.0 19.3 0.00 0.00 0.00 32 1026.1
20260506144003 20 103 9.7 19.3 0.00 0.00 0.00 32 1026.1
20260506143503 19 99 9.7 20.9 0.00 0.00 0.00 34 1026.2
20260506143003 20 98 9.7 29.0 0.00 0.00 0.00 33 1026.3
20260506142503 20 133 9.7 29.0 0.00 0.00 0.00 33 1026.4
20260506142003 19 139 6.4 17.7 0.00 0.00 0.00 33 1026.2
20260506141503 19 61 4.8 11.3 0.00 0.00 0.00 32 1026.6
20260506141024 19 108 9.7 24.1 0.00 0.00 0.00 33 1026.4
20260506140524 19 111 9.7 24.1 0.00 0.00 0.00 33 1026.5
20260506140003 19 74 4.8 12.9 0.00 0.00 0.00 33 1026.5
20260506135503 18 67 6.4 12.9 0.00 0.00 0.00 34 1026.4
20260506135003 18 64 8.0 19.3 0.00 0.00 0.00 35 1026.7
20260506134503 18 67 8.0 19.3 0.00 0.00 0.00 35 1026.6
20260506134003 17 76 8.0 17.7 0.00 0.00 0.00 36 1026.7
20260506133503 18 95 9.7 22.5 0.00 0.00 0.00 35 1026.7
20260506133003 18 109 11.3 22.5 0.00 0.00 0.00 35 1026.6
20260506132503 18 113 9.7 20.9 0.00 0.00 0.00 35 1026.8
20260506132003 18 135 8.0 16.1 0.00 0.00 0.00 35 1026.9
20260506131503 18 163 9.7 16.1 0.00 0.00 0.00 35 1026.7
20260506131003 18 166 9.7 20.9 0.00 0.00 0.00 35 1027.0
20260506130503 18 144 8.0 20.9 0.00 0.00 0.00 34 1027.1
20260506130004 19 86 4.8 12.9 0.00 0.00 0.00 33 1027.2
20260506125524 18 82 6.4 12.9 0.00 0.00 0.00 34 1027.1
20260506125003 18 98 8.0 16.1 0.00 0.00 0.00 34 1027.2
20260506124503 19 133 9.7 20.9 0.00 0.00 0.00 34 1027.4
20260506124004 18 144 8.0 20.9 0.00 0.00 0.00 35 1027.1
20260506123503 18 188 6.4 20.9 0.00 0.00 0.00 36 1027.2
20260506123003 18 270 6.4 17.7 0.00 0.00 0.00 36 1027.3
20260506122503 18 267 6.4 17.7 0.00 0.00 0.00 35 1027.4
20260506122003 18 283 4.8 12.9 0.00 0.00 0.00 36 1027.7
20260506121503 18 252 4.8 12.9 0.00 0.00 0.00 36 1027.7
20260506121003 17 205 6.4 14.5 0.00 0.00 0.00 37 1027.6
20260506120503 17 154 8.0 16.1 0.00 0.00 0.00 38 1027.9
20260506120024 17 156 8.0 16.1 0.00 0.00 0.00 38 1028.0
20260506115503 17 235 4.8 14.5 0.00 0.00 0.00 37 1027.8
20260506115024 17 358 4.8 12.9 0.00 0.00 0.00 39 1028.1
20260506114503 17 34 4.8 12.9 0.00 0.00 0.00 39 1027.7
20260506114003 17 138 6.4 14.5 0.00 0.00 0.00 39 1028.1
20260506113524 17 134 8.0 14.5 0.00 0.00 0.00 40 1027.9
20260506113003 16 124 8.0 12.9 0.00 0.00 0.00 40 1028.0
20260506112503 17 128 8.0 16.1 0.00 0.00 0.00 40 1028.1
20260506112003 17 133 8.0 16.1 0.00 0.00 0.00 41 1028.1
20260506111503 17 114 8.0 17.7 0.00 0.00 0.00 41 1028.1
20260506111003 17 104 6.4 17.7 0.00 0.00 0.00 40 1028.0
20260506110504 17 126 8.0 17.7 0.00 0.00 0.00 41 1028.3
20260506110003 17 119 11.3 17.7 0.00 0.00 0.00 41 1028.3
20260506105503 17 96 8.0 16.1 0.00 0.00 0.00 41 1028.0